{"data":{"norad_id":49101,"epoch":"2026-05-25T02:36:27.112896Z","epoch_age_seconds":72457,"freshness":"FRESH","line1":"1 49101U 21075AC  26145.10864714  .00000538  00000+0  14599-2 0  9994","line2":"2 49101  87.8959 355.2338 0002172  88.4879 271.6498 13.12442377232141","mean_motion":13.12442377,"eccentricity":0.0002172,"inclination_deg":87.8959,"raan_deg":355.2338,"arg_perigee_deg":88.4879,"mean_anomaly_deg":271.6498,"bstar":0.0014599,"rev_number":23214,"period_min":109.71910273818,"perigee_km":1212.076740978,"apogee_km":1215.3746461321,"semimajor_km":7591.8626935551,"source":"CELESTRAK","updated_at":"2026-05-25T13:38:22.486515Z"}}